Radiation Dose at Monitoring Post of Fukushima Daini Nuclear Power Station
Date,Time,MP-1(microSv/h),MP-2(microSv/h),MP-3(microSv/h),MP-4(microSv/h),MP-5(microSv/h),MP-6(microSv/h),MP-7(microSv/h),Wind Direction,Wind Velocity(m/s),Rain
2021/06/08,00:00,0.165,0.151,0.241,0.232,0.235,0.130,0.080,north-northwest,0.7,No
2021/06/08,00:10,0.167,0.151,0.240,0.233,0.232,0.131,0.082,north-northeast,0.9,No
2021/06/08,00:20,0.166,0.151,0.241,0.234,0.236,0.130,0.081,-,CALM,No
2021/06/08,00:30,0.166,0.151,0.240,0.235,0.233,0.131,0.081,west,0.9,No
2021/06/08,00:40,0.165,0.151,0.240,0.232,0.234,0.129,0.081,west,2.3,No
2021/06/08,00:50,0.166,0.152,0.241,0.234,0.233,0.131,0.081,west-northwest,1.8,No
2021/06/08,01:00,0.167,0.151,0.241,0.232,0.233,0.130,0.080,northwest,1.8,No
2021/06/08,01:10,0.166,0.151,0.240,0.234,0.234,0.130,0.082,-,CALM,No
2021/06/08,01:20,0.167,0.151,0.240,0.232,0.233,0.130,0.081,west-northwest,1.7,No
2021/06/08,01:30,0.166,0.151,0.241,0.235,0.234,0.131,0.081,-,CALM,No
2021/06/08,01:40,0.167,0.150,0.239,0.232,0.234,0.131,0.081,southeast,2.7,No
2021/06/08,01:50,0.166,0.152,0.241,0.235,0.235,0.131,0.081,south,2.5,No
2021/06/08,02:00,0.167,0.152,0.240,0.233,0.232,0.130,0.082,south-southeast,3.2,No
2021/06/08,02:10,0.167,0.151,0.242,0.235,0.234,0.131,0.082,south,3.6,No
2021/06/08,02:20,0.167,0.151,0.239,0.233,0.233,0.130,0.081,south-southwest,4.1,No
2021/06/08,02:30,0.166,0.152,0.240,0.234,0.234,0.130,0.081,south-southwest,3.7,No
2021/06/08,02:40,0.167,0.151,0.241,0.232,0.232,0.129,0.081,south-southwest,4.0,No
2021/06/08,02:50,0.166,0.151,0.241,0.234,0.233,0.130,0.081,south-southwest,3.8,No
2021/06/08,03:00,0.167,0.151,0.238,0.232,0.235,0.129,0.081,south-southwest,4.0,No
2021/06/08,03:10,0.165,0.150,0.241,0.233,0.233,0.130,0.081,south-southwest,3.6,No
2021/06/08,03:20,0.167,0.151,0.239,0.233,0.234,0.129,0.081,south-southwest,4.2,No
2021/06/08,03:30,0.166,0.151,0.240,0.233,0.232,0.130,0.081,south-southwest,3.5,No
2021/06/08,03:40,0.166,0.152,0.240,0.233,0.235,0.130,0.081,south-southwest,3.1,No
2021/06/08,03:50,0.165,0.151,0.241,0.234,0.234,0.130,0.081,south,3.2,No
2021/06/08,04:00,0.167,0.151,0.240,0.232,0.234,0.129,0.081,south,3.2,No
2021/06/08,04:10,0.166,0.150,0.241,0.234,0.235,0.131,0.081,south-southwest,1.2,No
2021/06/08,04:20,0.167,0.151,0.240,0.232,0.233,0.130,0.081,south,1.8,No
2021/06/08,04:30,0.165,0.151,0.240,0.234,0.235,0.130,0.082,south,1.9,No
2021/06/08,04:40,0.167,0.151,0.241,0.232,0.235,0.130,0.082,south-southeast,0.9,No
2021/06/08,04:50,0.166,0.151,0.241,0.234,0.235,0.131,0.081,south-southeast,0.8,No
2021/06/08,05:00,0.168,0.151,0.240,0.232,0.233,0.130,0.082,-,CALM,No
2021/06/08,05:10,0.166,0.151,0.241,0.234,0.234,0.131,0.081,south-southeast,1.0,No
2021/06/08,05:20,0.167,0.151,0.240,0.233,0.232,0.129,0.082,south-southeast,0.6,No
2021/06/08,05:30,0.165,0.150,0.240,0.234,0.235,0.130,0.082,south,0.7,No
2021/06/08,05:40,0.166,0.152,0.241,0.232,0.233,0.129,0.081,south,1.2,No
2021/06/08,05:50,0.166,0.151,0.240,0.233,0.233,0.130,0.082,south,1.3,No
2021/06/08,06:00,0.167,0.152,0.240,0.233,0.234,0.130,0.081,south-southwest,0.8,No
2021/06/08,06:10,0.167,0.151,0.240,0.234,0.232,0.131,0.081,-,CALM,No
2021/06/08,06:20,0.167,0.149,0.240,0.233,0.232,0.130,0.082,-,CALM,No
2021/06/08,06:30,0.167,0.152,0.241,0.231,0.235,0.131,0.081,-,CALM,No
2021/06/08,06:40,0.165,0.151,0.239,0.234,0.233,0.130,0.081,west-southwest,1.1,No
2021/06/08,06:50,0.167,0.149,0.241,0.232,0.232,0.130,0.080,southwest,0.8,No
2021/06/08,07:00,0.167,0.149,0.240,0.231,0.234,0.131,0.081,-,CALM,No
2021/06/08,07:10,0.165,0.150,0.238,0.235,0.233,0.129,0.082,north-northeast,0.7,No
2021/06/08,07:20,0.168,0.152,0.238,0.232,0.231,0.132,0.082,-,CALM,No
2021/06/08,07:30,0.167,0.151,0.238,0.230,0.234,0.131,0.081,-,CALM,No
2021/06/08,07:40,0.166,0.151,0.240,0.230,0.236,0.130,0.081,-,CALM,No
2021/06/08,07:50,0.168,0.151,0.242,0.232,0.234,0.132,0.082,-,CALM,No
2021/06/08,08:00,0.167,0.151,0.242,0.234,0.232,0.130,0.082,-,CALM,No
2021/06/08,08:10,0.165,0.153,0.240,0.235,0.230,0.129,0.082,southeast,0.7,No
2021/06/08,08:20,0.169,0.151,0.239,0.233,0.233,0.130,0.081,south-southeast,1.6,No
2021/06/08,08:30,0.166,0.151,0.239,0.231,0.232,0.131,0.081,south-southeast,1.1,No
2021/06/08,08:40,0.166,0.151,0.239,0.232,0.235,0.130,0.081,south-southeast,1.1,No
2021/06/08,08:50,0.168,0.151,0.239,0.231,0.235,0.130,0.081,south,0.9,No
2021/06/08,09:00,0.167,0.152,0.239,0.232,0.234,0.130,0.083,south,1.0,No
2021/06/08,09:10,0.165,0.151,0.242,0.233,0.232,0.131,0.082,south-southeast,0.9,No
2021/06/08,09:20,0.166,0.151,0.242,0.234,0.233,0.130,0.081,south-southeast,0.8,No
2021/06/08,09:30,0.168,0.152,0.242,0.235,0.233,0.129,0.082,south-southeast,0.8,No
2021/06/08,09:40,0.167,0.151,0.240,0.232,0.236,0.131,0.082,south-southeast,1.2,No
2021/06/08,09:50,0.166,0.151,0.238,0.231,0.235,0.131,0.082,south-southeast,1.1,No
2021/06/08,10:00,0.166,0.151,0.238,0.231,0.234,0.131,0.080,southeast,1.0,No
2021/06/08,10:10,0.167,0.151,0.242,0.235,0.232,0.130,0.081,-,CALM,No
2021/06/08,10:20,0.167,0.152,0.242,0.235,0.232,0.131,0.081,south-southeast,0.7,No
2021/06/08,10:30,0.165,0.151,0.240,0.234,0.232,0.130,0.081,-,CALM,No
2021/06/08,10:40,0.168,0.150,0.240,0.233,0.231,0.131,0.081,south,0.7,No
2021/06/08,10:50,0.167,0.152,0.238,0.231,0.234,0.130,0.081,south,0.7,No
2021/06/08,11:00,0.166,0.151,0.242,0.232,0.237,0.130,0.080,-,CALM,No
2021/06/08,11:10,0.165,0.151,0.241,0.230,0.235,0.130,0.082,-,CALM,No
2021/06/08,11:20,0.168,0.151,0.241,0.233,0.234,0.131,0.081,-,CALM,No
2021/06/08,11:30,0.167,0.150,0.239,0.232,0.234,0.130,0.081,west-southwest,0.6,No
2021/06/08,11:40,0.166,0.150,0.238,0.231,0.232,0.131,0.082,west-northwest,0.9,No
2021/06/08,11:50,0.165,0.150,0.239,0.232,0.233,0.130,0.080,northwest,0.8,No
2021/06/08,12:00,0.164,0.150,0.240,0.232,0.232,0.130,0.080,-,CALM,No
2021/06/08,12:10,0.164,0.152,0.239,0.230,0.232,0.129,0.081,east-northeast,1.2,No
2021/06/08,12:20,0.166,0.152,0.239,0.232,0.232,0.131,0.082,east-northeast,0.9,No
2021/06/08,12:30,0.167,0.150,0.239,0.232,0.231,0.130,0.081,north-northeast,0.6,No
2021/06/08,12:40,0.167,0.150,0.241,0.236,0.232,0.130,0.082,northwest,1.9,No
2021/06/08,12:50,0.166,0.151,0.242,0.235,0.233,0.131,0.082,north-northwest,1.1,No
2021/06/08,13:00,0.166,0.151,0.242,0.233,0.237,0.130,0.082,-,CALM,No
2021/06/08,13:10,0.168,0.151,0.239,0.232,0.235,0.130,0.081,northeast,0.7,No
2021/06/08,13:20,0.166,0.150,0.242,0.235,0.233,0.130,0.080,northeast,0.8,No
2021/06/08,13:30,0.165,0.152,0.243,0.234,0.236,0.130,0.081,east,0.6,No
2021/06/08,13:40,0.169,0.152,0.240,0.233,0.235,0.131,0.081,north-northeast,0.6,No
2021/06/08,13:50,0.167,0.149,0.241,0.236,0.233,0.131,0.081,west-southwest,0.8,No
2021/06/08,14:00,0.167,0.152,0.242,0.234,0.235,0.129,0.082,southwest,0.6,No
2021/06/08,14:10,0.168,0.151,0.239,0.232,0.236,0.130,0.082,west-southwest,0.6,No
2021/06/08,14:20,0.167,0.151,0.242,0.236,0.233,0.131,0.082,west-northwest,1.1,No
2021/06/08,14:30,0.165,0.152,0.244,0.236,0.232,0.130,0.082,-,CALM,No
2021/06/08,14:40,0.167,0.151,0.240,0.233,0.236,0.131,0.081,-,CALM,No
2021/06/08,14:50,0.167,0.151,0.241,0.234,0.234,0.130,0.081,-,CALM,No
2021/06/08,15:00,0.166,0.152,0.243,0.235,0.233,0.130,0.082,-,CALM,Yes
2021/06/08,15:10,0.168,0.152,0.240,0.232,0.236,0.131,0.081,-,CALM,No
2021/06/08,15:20,0.167,0.151,0.242,0.234,0.235,0.131,0.082,-,CALM,No
2021/06/08,15:30,0.166,0.152,0.243,0.235,0.233,0.130,0.081,-,CALM,No
2021/06/08,15:40,0.168,0.151,0.240,0.233,0.236,0.131,0.082,-,CALM,No
2021/06/08,15:50,0.167,0.152,0.242,0.236,0.236,0.131,0.082,-,CALM,No
2021/06/08,16:00,0.166,0.152,0.241,0.234,0.233,0.131,0.082,south-southeast,0.6,No
2021/06/08,16:10,0.167,0.152,0.242,0.233,0.236,0.131,0.082,south,0.7,No
2021/06/08,16:20,0.166,0.152,0.243,0.236,0.236,0.131,0.082,southwest,0.9,No
2021/06/08,16:30,0.169,0.151,0.241,0.234,0.233,0.130,0.082,west-northwest,1.1,No
2021/06/08,16:40,0.168,0.151,0.241,0.234,0.236,0.131,0.081,north,1.2,Yes
2021/06/08,16:50,0.165,0.152,0.241,0.236,0.235,0.131,0.083,northwest,2.0,No
2021/06/08,17:00,0.167,0.151,0.240,0.234,0.233,0.131,0.081,north-northwest,2.6,No
2021/06/08,17:10,0.168,0.154,0.243,0.235,0.238,0.132,0.082,north,3.6,No
2021/06/08,17:20,0.167,0.152,0.243,0.236,0.235,0.130,0.083,north-northwest,3.8,No
2021/06/08,17:30,0.169,0.153,0.243,0.235,0.234,0.132,0.083,north-northwest,3.3,No
2021/06/08,17:40,0.167,0.153,0.244,0.236,0.239,0.132,0.083,north,3.5,No
2021/06/08,17:50,0.169,0.153,0.241,0.235,0.236,0.132,0.082,north,1.7,No
2021/06/08,18:00,0.167,0.153,0.243,0.234,0.233,0.132,0.083,north,1.8,No
2021/06/08,18:10,0.166,0.152,0.242,0.236,0.237,0.131,0.082,north,1.6,No
2021/06/08,18:20,0.168,0.152,0.240,0.235,0.237,0.131,0.082,north,0.7,No
2021/06/08,18:30,0.168,0.153,0.243,0.235,0.234,0.132,0.082,north-northwest,1.2,No
2021/06/08,18:40,0.166,0.153,0.243,0.236,0.236,0.132,0.082,west-northwest,1.6,No
2021/06/08,18:50,0.168,0.153,0.244,0.233,0.234,0.130,0.082,north-northeast,1.6,No
2021/06/08,19:00,0.167,0.153,0.244,0.236,0.235,0.131,0.082,-,CALM,No
2021/06/08,19:10,0.168,0.152,0.243,0.234,0.235,0.131,0.082,-,CALM,No
2021/06/08,19:20,0.168,0.153,0.243,0.236,0.235,0.132,0.083,northwest,0.8,No
2021/06/08,19:30,0.167,0.153,0.242,0.235,0.236,0.130,0.082,-,CALM,No
2021/06/08,19:40,0.168,0.153,0.243,0.236,0.234,0.131,0.082,-,CALM,No
2021/06/08,19:50,0.167,0.152,0.242,0.236,0.237,0.131,0.082,-,CALM,No
2021/06/08,20:00,0.169,0.151,0.244,0.233,0.235,0.131,0.083,west-northwest,0.9,No
2021/06/08,20:10,0.166,0.152,0.243,0.237,0.235,0.131,0.082,northwest,0.8,No
2021/06/08,20:20,0.168,0.153,0.244,0.235,0.234,0.130,0.082,west-northwest,0.8,No
2021/06/08,20:30,0.167,0.153,0.242,0.235,0.234,0.131,0.082,west-northwest,1.1,No
2021/06/08,20:40,0.167,0.152,0.242,0.233,0.236,0.130,0.082,west-southwest,1.4,No
2021/06/08,20:50,0.167,0.152,0.241,0.236,0.234,0.131,0.082,west-southwest,1.2,No
2021/06/08,21:00,0.169,0.153,0.243,0.234,0.236,0.131,0.083,west,1.6,No
2021/06/08,21:10,0.167,0.152,0.241,0.235,0.233,0.130,0.082,west-northwest,1.4,No
2021/06/08,21:20,0.168,0.151,0.242,0.234,0.235,0.130,0.082,northwest,2.5,No
2021/06/08,21:30,0.166,0.151,0.241,0.236,0.232,0.131,0.081,west-northwest,3.6,No
2021/06/08,21:40,0.167,0.151,0.242,0.232,0.235,0.130,0.081,west-northwest,4.2,No
2021/06/08,21:50,0.167,0.151,0.241,0.235,0.233,0.131,0.081,west-northwest,3.7,No
2021/06/08,22:00,0.167,0.151,0.242,0.234,0.236,0.130,0.081,northwest,3.6,No
2021/06/08,22:10,0.167,0.150,0.241,0.234,0.232,0.130,0.082,northwest,3.4,No
2021/06/08,22:20,0.166,0.151,0.241,0.234,0.235,0.130,0.082,west-northwest,3.4,No
2021/06/08,22:30,0.167,0.150,0.242,0.234,0.232,0.131,0.081,west-northwest,2.1,No
2021/06/08,22:40,0.167,0.151,0.241,0.233,0.234,0.130,0.081,west,1.3,No
2021/06/08,22:50,0.167,0.151,0.242,0.234,0.233,0.130,0.080,west-southwest,3.4,No
2021/06/08,23:00,0.167,0.152,0.241,0.234,0.234,0.130,0.081,west,4.4,No
2021/06/08,23:10,0.167,0.151,0.242,0.234,0.233,0.131,0.081,west-northwest,4.5,No
2021/06/08,23:20,0.167,0.151,0.240,0.233,0.234,0.130,0.082,west-northwest,3.1,No
2021/06/08,23:30,0.166,0.151,0.242,0.234,0.235,0.131,0.081,northwest,1.5,No
2021/06/08,23:40,0.167,0.151,0.240,0.234,0.234,0.130,0.081,northwest,3.0,No
2021/06/08,23:50,0.167,0.152,0.243,0.234,0.236,0.131,0.081,northwest,3.9,No
